Location: Newark
(35.2672°N, 80.7344°W)
Time: 18:20:05
(UTC+00:00)

SR - Pass Details

Date: 02 February 2020
Orbit: 575 x 881 km, 66.7° (Epoch: 17 February)

Event Time Altitude Azimuth Distance (km) Brightness Sun altitude
Rises 02:31:35 0° 241° (WSW) 3,411 ? -45.1°
Reaches altitude 10° 02:34:28 10° 254° (WSW) 2,505 ? -45.7°
Enters shadow 02:34:50 12° 257° (WSW) 2,402 ? -45.8°
